Showing default

INTELSAT 29E, 41308

Orbit data source: Space-Track

INTELSAT 29E, 41308 is a payload satellite owned by Intelsat SA (US) (US) in GEO that was launched on Wed, 27 Jan 2016 UTC via an ARIANE 5ECA launch vehicle from the French Guiana (FRGUI). Payload-class satellites include a variety of spacecraft equipped with specific instruments for various scientific and technological missions. These include communications satellites like Starlink; space stations such as the ISS; scientific satellites like the Hubble; Earth observation satellites from companies like Planet Labs, Umbra, and HawkEye 360; GPS; miniature CubeSats for education and research; and military/defense satellites.

Not visible in the next 10 days
Identifier
41308, 2016-004A
Orbit
GEO
Country
Flag of UnknownUnknown / ITSO
Related business
Manufacturer
Boeing/ES
Mission
Non-operational Commercial Communications
Bus & Motor
BSS-702MP, LEROS
Mass
6,552 kg wet, ~2,946 kg dry
Launch date (UTC)
2016-01-27 (10 years ago)
Launch vehicle
ARIANE 5ECA
Launch site
French Guiana (FRGUI)
Object type
Payload
Rocket body
Debris
Shape & HBR
Box + 2 Pan, 22.0 m
Radar Cross Section
59.953 m², Large (>1 m²)

Expand to show TLE details & history
Last TLE update: 14 hours ago

TLE from 14 hours ago
0 INTELSAT 29E
1 41308U 16004A   25258.58743597  .00000111  00000-0  00000-0 0  9990
2 41308   5.8068  73.6286 0004134  89.8425  56.8665  1.00615892 35517
Epoch: 2025-09-15T14:05Z
TLE epoch observation values (Epoch: 2025-09-15T14:05:54.467Z)
Latitude
3.1982°
Longitude
14.23961°
Altitude
35,679.997 km
Speed
3.079 km/s
True Right ascension
14h 42m 01s
True Declination
3° 11' 42"
Sunlit
Object was in daylight at epoch
Visualization orbit readout
Latitude
Unknown
Longitude
Unknown
Altitude
Unknown
Speed
Unknown
Apparent Right ascension
Unknown
Apparent Declination
Unknown
Sunlit
N/A
Visualization observer readout
Local Sidereal Time
20:39:45
Azimuth
Unknown
Elevation
Unknown
Doppler factor
Unknown
Orbital elements
Apogee altitude
35,708.853 km
Perigee altitude
35,674.069 km
Semi-major axis
42,069.598 km
Eccentricity
0.00041
Inclination
5.8068°
RAAN
73.6286°
Arg. of periapsis
89.8425°
True anomaly
56.90618°
Mean anomaly
56.8665°
Eccentric anomaly
56.88634°
Mean motion
0.25153 °/min
Orbital period
1,431.24 mins
BSTAR
0
Loading maneuver chart data...
Computing Atmospheric mass density...
Loading historical data...
Loading historical data...
Loading historical data...
Loading historical data...
Loading historical data...
Loading historical data...
Loading historical data...
Other satellites on launch #4 in the year 2016 (2016-01-27 UTC)

Documentation

Showing up to 5 results
|